Location: Simpson
(37.4673°N, 88.7551°W)
Time: 17:08:06
(UTC+00:00)

Daily predictions for brighter satellites

Satellite Brightness Start Highest point End
(mag) Time Altitude Azimuth Time Altitude Azimuth Time Altitude Azimuth
STARLINK 1064 3.4 12:01:27 14° NW 12:04:23 70° NE 12:07:55 10° SE
Meteor 1-18 Rocket 4.5 12:00:37 10° NNW 12:05:52 45° W 12:11:09 10° SSW
STARLINK 1041 3.3 12:04:26 13° NW 12:07:30 75° NE 12:11:02 10° SE
Cosmos 1346 Rocket 3.4 12:05:52 10° SW 12:09:22 32° WNW 12:12:54 10° NNW
GEOS 3 Rocket 4.4 12:05:12 10° S 12:09:42 32° WSW 12:14:15 10° NW
STARLINK 1038 3.2 12:07:26 12° NW 12:10:37 81° NE 12:14:10 10° SE
FALCON 9 DEB 3.0 12:10:39 16° WNW 12:12:09 34° SW 12:14:20 10° SSE
STARLINK 1046 3.2 12:10:25 12° NW 12:13:44 87° NE 12:17:16 10° SE
COSMO-SKYMED 1 4.0 12:11:13 10° SW 12:14:21 19° W 12:17:31 10° NW
FENGYUN 3A 4.3 12:09:52 10° N 12:14:36 32° WNW 12:19:18 10° SW
H-2A R/B 2.7 12:11:22 10° NNE 12:15:07 87° E 12:18:55 10° SSW
Cosmos 1844 4.3 12:10:29 10° S 12:16:12 64° ESE 12:21:55 10° NNE
STARLINK 1039 3.2 12:13:26 11° NW 12:16:51 87° SW 12:20:24 10° SE
STARLINK 1045 3.2 12:14:49 10° NW 12:18:18 85° SW 12:21:51 10° SE
FALCON 9 DEB 3.4 12:17:11 12° WNW 12:18:56 27° SW 12:21:01 10° SSE
Cosmos 2221 Rocket 3.9 12:16:04 10° NNW 12:20:16 44° W 12:24:27 10° SSW
Cosmos 1331 Rocket 4.0 12:15:51 10° SSW 12:20:56 65° WNW 12:26:05 10° NNE
PSLV R/B 3.0 12:18:52 12° WNW 12:21:00 45° NNE 12:23:22 10° E
Cosmos 1844 Rocket 2.7 12:16:02 10° SSW 12:21:37 89° W 12:27:14 10° NNE
OE (NEXTSAT) 4.4 12:18:25 11° WNW 12:21:51 79° SSW 12:25:22 10° SE
CZ-4B R/B 3.7 12:16:42 10° N 12:21:53 40° WNW 12:27:05 10° SW
STARLINK 1027 3.0 12:19:27 10° WNW 12:22:16 54° SW 12:25:08 10° SSE
STARLINK 1028 3.0 12:19:41 10° WNW 12:22:29 54° SW 12:25:21 10° SSE
STARLINK 1021 3.0 12:19:54 10° WNW 12:22:43 54° SW 12:25:35 10° SSE
STARLINK 1019 3.0 12:20:04 10° WNW 12:22:56 54° SW 12:25:49 10° SSE
STARLINK 1012 3.0 12:20:19 10° WNW 12:23:10 53° SW 12:26:01 10° SSE
STARLINK 1010 3.0 12:20:32 10° WNW 12:23:23 52° SW 12:26:14 10° SSE
STARLINK 1026 3.0 12:20:45 10° WNW 12:23:36 52° SW 12:26:28 10° SSE
STARLINK 1013 3.0 12:20:59 10° WNW 12:23:51 52° SW 12:26:41 10° SSE
Meteor 1-11 Rocket 3.8 12:18:13 10° S 12:23:54 88° W 12:29:47 10° N
STARLINK 1009 3.0 12:21:12 10° WNW 12:24:04 51° SW 12:26:54 10° SSE
STARLINK 1015 3.0 12:21:25 10° WNW 12:24:17 51° SW 12:27:08 10° SSE
STARLINK 1016 3.1 12:21:39 10° WNW 12:24:31 51° SW 12:27:22 10° SSE
STARLINK 1008 3.1 12:21:53 10° WNW 12:24:44 50° SW 12:27:34 10° SSE
Cosmos 332 Rocket 3.8 12:20:03 10° SSW 12:24:54 66° WNW 12:29:48 10° NNE
STARLINK 1014 3.1 12:22:06 10° WNW 12:24:57 50° SW 12:27:47 10° SSE
STARLINK 1025 3.1 12:22:19 10° WNW 12:25:10 49° SW 12:28:00 10° SSE
STARLINK 1017 3.1 12:22:34 10° WNW 12:25:25 49° SW 12:28:15 10° SSE
STARLINK 1034 3.1 12:22:40 10° WNW 12:25:33 50° SW 12:28:26 10° SSE
STARLINK 1023 3.1 12:22:47 10° WNW 12:25:38 49° SW 12:28:28 10° SSE
STARLINK 1007 3.1 12:23:00 10° WNW 12:25:51 48° SW 12:28:41 10° SSE
STARLINK 1048 3.1 12:23:14 10° WNW 12:26:04 48° SW 12:28:54 10° SSE
STARLINK 1052 3.1 12:23:19 10° WNW 12:26:11 48° SW 12:29:00 10° SSE
STARLINK 1049 3.1 12:23:28 10° WNW 12:26:18 48° SW 12:29:07 10° SSE
STARLINK 1051 3.1 12:23:40 10° WNW 12:26:31 48° SW 12:29:21 10° SSE
STARLINK 1037 3.2 12:23:55 10° WNW 12:26:45 47° SW 12:29:34 10° SSE
STARLINK 1059 3.2 12:24:08 10° WNW 12:26:58 47° SW 12:29:48 10° SSE
STARLINK 1057 3.2 12:24:21 10° WNW 12:27:11 47° SW 12:30:01 10° SSE
STARLINK 1068 3.2 12:24:49 10° WNW 12:27:39 46° SW 12:30:28 10° SSE
STARLINK 1029 3.2 12:25:04 10° WNW 12:27:53 45° SW 12:30:41 10° SSE
STARLINK 1060 3.2 12:25:16 10° WNW 12:28:05 45° SW 12:30:54 10° SSE
STARLINK 1030 3.2 12:25:28 10° WNW 12:28:19 45° SW 12:31:10 10° SSE
STARLINK 1040 3.4 12:25:44 10° WNW 12:28:32 41° SW 12:31:18 10° SSE
STARLINK 1020 3.2 12:25:44 10° WNW 12:28:32 45° SW 12:31:21 10° SSE
STARLINK 1033 3.3 12:26:24 10° WNW 12:29:13 44° SW 12:32:01 10° SSE
STARLINK 1031 3.3 12:26:37 10° WNW 12:29:26 43° SW 12:32:13 10° SSE
STARLINK 1024 3.3 12:26:50 10° WNW 12:29:41 43° SW 12:32:30 10° SSE
Atlas Centaur 2 4.3 22:57:02 10° W 23:03:26 37° SSW 23:10:49 10° SE
Meteor 1-27 Rocket 3.8 23:00:35 10° S 23:06:15 70° E 23:12:04 10° NNE
Meteor 1-11 Rocket 3.9 23:02:37 10° N 23:08:34 66° E 23:14:26 10° SSE
Cosmos 1980 3.8 23:05:35 10° SSW 23:11:13 86° WNW 23:16:55 10° NNE
BREEZE-M DEB (TANK) 4.4 23:09:19 10° WSW 23:13:48 65° NNW 23:32:27 10° ENE
Cosmos 1536 3.1 23:13:07 10° N 23:16:58 45° E 23:20:47 10° SSE
Shenzhou-11 Module 2.9 23:16:01 10° NW 23:18:26 27° N 23:20:27 13° ENE
Cosmos 1862 Rocket 3.8 23:15:06 10° SSW 23:19:25 76° W 23:23:49 10° N
USA 267 3.3 23:14:06 10° ESE 23:20:29 59° NE 23:26:53 10° NW
OAO 2 Rocket 3.6 23:16:52 10° WSW 23:21:49 67° S 23:26:51 10° E
Cosmos 1703 Rocket 4.1 23:18:30 10° SSE 23:22:36 37° E 23:26:45 10° NNE
ATLAS 3B R/B 4.2 23:16:39 10° NW 23:22:56 42° WSW 23:29:24 10° S
Cosmos 1666 3.3 23:20:38 10° NNE 23:24:02 33° ENE 23:27:25 10° SE
Lacrosse 5 rocket 3.5 23:21:17 10° W 23:24:23 19° NW 23:27:23 10° N
Okean O Rocket 3.7 23:21:53 10° SSW 23:25:42 31° W 23:29:34 10° NW
STARLINK-52 3.4 23:23:28 10° SW 23:26:58 67° NW 23:30:04 13° NE
Cosmos 2242 Rocket 3.7 23:28:08 10° S 23:32:41 89° WNW 23:37:17 10° N
Feng Yun 1-1 Rocket 4.2 23:27:26 10° SSE 23:32:50 87° WSW 23:38:15 10° NNW
SL-4 R/B 4.3 23:31:53 10° NNW 23:33:13 11° N 23:34:37 10° NNE
CZ-4 R/B 2.5 23:30:27 10° ESE 23:33:26 21° ENE 23:36:23 10° NNE
Okean 1 4.3 23:30:52 10° SSE 23:34:11 26° E 23:36:52 13° NE
STARLINK-29 3.9 23:31:44 10° WSW 23:35:09 48° NW 23:37:59 14° NE
Cosmos 1263 4.0 23:33:23 10° S 23:36:31 84° E 23:39:30 10° N
ISS -3.9 23:38:17 10° NW 23:41:38 77° NE 23:45:00 10° SE
Cosmos 1627 Rocket 4.5 23:36:13 10° S 23:42:11 58° E 23:48:11 10° NNE
NOSS 7 (D) 4.3 23:39:37 10° NNW 23:42:43 57° ENE 23:46:16 10° SE
Cosmos 1190 Rocket 4.3 23:38:57 10° S 23:43:50 43° ESE 23:48:05 13° NE
Okean-O 2.5 23:39:51 10° SSE 23:44:14 69° ENE 23:48:39 10° N
Cosmos 2195 Rocket 4.4 23:43:19 10° S 23:49:29 75° E 23:55:45 10° N
SMAP 3.9 23:45:18 10° S 23:49:50 54° W 23:54:24 10° NNW
Cosmos 1743 3.5 23:47:06 10° NNE 23:50:30 29° ENE 23:53:53 10° SE
